Showing default

NOAA 4, 7529

Orbit data source: Space-Track

NOAA 4, 7529 is a payload satellite owned by NOAA (US) in SSO that was launched on Fri, 15 Nov 1974 UTC via a DELTA 2310 launch vehicle from the Air Force Western Test Range (AFWTR). Payload-class satellites include a variety of spacecraft equipped with specific instruments for various scientific and technological missions. These include communications satellites like Starlink; space stations such as the ISS; scientific satellites like the Hubble; Earth observation satellites from companies like Planet Labs, Umbra, and HawkEye 360; GPS; miniature CubeSats for education and research; and military/defense satellites.

Loading next visibility...
Identifier
7529, 1974-089A
Orbit
SSO
Country
Flag of USUS
Related business
Manufacturer
RCA/East Windsor
Mission
Non-operational spacecraft
Bus & Motor
TIROS M, Unknown motor
Mass
345 kg wet, 345 kg dry
Launch date (UTC)
1974-11-15 (51 years ago)
Launch vehicle
DELTA 2310
Launch site
Air Force Western Test Range (AFWTR)
Object type
Payload
Rocket body
Debris
Shape & HBR
Unknown
Radar Cross Section
Large (>1 m²)

Expand to show TLE details & history
Last TLE update: 20 hours ago

TLE from 20 hours ago
0 NOAA 4
1 07529U 74089A   25303.53969174 -.00000032  00000-0  94236-4 0  9992
2 07529 102.0086 308.8990 0008804 275.4989 261.0446 12.53197790330758
Epoch: 2025-10-30T12:57Z
TLE epoch observation values (Epoch: 2025-10-30T12:57:09.366Z)
Latitude
3.39265°
Longitude
-103.76807°
Altitude
1,454.418 km
Speed
7.135 km/s
True Right ascension
08h 38m 28s
True Declination
3° 22' 27"
Sunlit
Object was in daylight at epoch
Visualization orbit readout
Latitude
Unknown
Longitude
Unknown
Altitude
Unknown
Speed
Unknown
Apparent Right ascension
Unknown
Apparent Declination
Unknown
Sunlit
N/A
Visualization observer readout
Local Sidereal Time
04:22:05
Azimuth
Unknown
Elevation
Unknown
Doppler factor
Unknown
Orbital elements
Apogee altitude
1,455.597 km
Perigee altitude
1,441.815 km
Semi-major axis
7,826.843 km
Eccentricity
0.00088
Inclination
102.0086°
RAAN
308.899°
Arg. of periapsis
275.4989°
True anomaly
260.94496°
Mean anomaly
261.0446°
Eccentric anomaly
260.99478°
Mean motion
3.13446 °/min
Orbital period
114.85 mins
BSTAR
0.000094236
Loading maneuver chart data...
Computing Atmospheric mass density...

Documentation

Showing up to 5 results
|